STARLINK-1334 (45556 NORAD) Tracking and Keplerian Element Data

This shows tracking and keplerian element data for the satellite.

Feedback or suggestion? Click here.




ElementValue
Catalog45556
NameSTARLINK-1334
Epoch Orbit586
Epoch Day142.80032326
Epoch Year2020
RAAN256.1413
Inclination52.9987
Eccentricity0.0001352
Argument of Perigee100.4916
Mean Anonmoly259.625
Mean Motion15.62720831
Decay Rate-0.00018202
L11 45556U 20025AB 20142.80032326 -.00018202 00000-0 -19363-3 0 9997
L22 45556 52.9987 256.1413 0001352 100.4916 259.6250 15.62720831 5864

Live tracking and technical data element details for STARLINK-1334 (NORAD 45556). STARLINK-1334 can be tracked NOW for your location showing map with azimuth and elevation plus other details from your city location.

Track the satellite on the map from your city or location and see movement details for azimuth, elevation, latitude, longitude, range, height, and movement on the map or in text.







IsCatalogInMostPopularTable: catalog: 45556, numindb: 6
Update: records affected: 1



GetName: 45556 STARLINK-1334

Hit Count: updated at: Mon, 25 May 2020 07:10:17 GMT